SM4IVE-5 Weather Reports


Display with metric or nautical units.
time (UTC)temp
F
wind
direction
speed
MPH
gust
MPH
rain 1hr
in
rain 24hr
in
rain mn
in
humidity
%
barometer
mb
20221208234343 22 107 0.0 0.0 0.00 0.00 0.00 95 1004.6
20221208233825 22 107 0.0 0.0 0.00 0.00 0.00 95 1004.6
20221208233329 22 107 0.0 0.0 0.00 0.00 0.00 95 1004.6
20221208232832 22 107 0.0 0.0 0.00 0.00 0.00 95 1004.6
20221208232336 22 106 0.0 0.0 0.00 0.00 0.00 95 1004.5
20221208231845 22 107 0.0 0.0 0.00 0.00 0.00 95 1004.3
20221208231326 22 107 0.0 0.0 0.00 0.00 0.00 95 1004.5
20221208230828 22 107 0.0 0.0 0.00 0.00 0.00 95 1004.4
20221208230352 22 107 0.0 0.0 0.00 0.00 0.00 95 1004.4
20221208225833 22 107 0.0 0.0 0.00 0.00 0.00 96 1004.4
20221208225336 22 107 0.0 0.0 0.00 0.00 0.00 96 1004.4
20221208224841 21 107 0.0 0.0 0.00 0.00 0.00 95 1004.4
20221208224325 21 106 0.0 0.0 0.00 0.00 0.00 95 1004.4
20221208223828 21 106 0.0 0.0 0.00 0.00 0.00 95 1004.3
20221208223353 21 106 0.0 0.0 0.00 0.00 0.00 95 1004.3
20221208222834 21 107 0.0 0.0 0.00 0.00 0.00 95 1004.4
20221208222337 21 106 0.0 0.0 0.00 0.00 0.00 95 1004.4
20221208221840 21 110 0.0 0.0 0.00 0.00 0.00 95 1004.4
20221208221327 21 111 0.0 0.0 0.00 0.00 0.00 95 1004.4
20221208220831 21 111 0.0 0.0 0.00 0.00 0.00 95 1004.4
20221208220332 21 113 0.0 0.0 0.00 0.00 0.00 95 1004.3
20221208215836 21 113 0.0 0.0 0.00 0.00 0.00 95 1004.4
20221208215339 20 113 0.0 0.0 0.00 0.00 0.00 95 1004.4
20221208214842 20 113 0.0 0.0 0.00 0.00 0.00 95 1004.3
20221208214327 20 113 0.0 0.0 0.00 0.00 0.00 95 1004.3
20221208213831 20 113 0.0 0.0 0.00 0.00 0.00 95 1004.3
20221208213334 20 113 0.0 0.0 0.00 0.00 0.00 95 1004.2
20221208212837 20 107 0.0 0.0 0.00 0.00 0.00 95 1004.2
20221208212341 20 107 0.0 0.0 0.00 0.00 0.00 95 1004.2
20221208211843 20 107 0.0 2.0 0.00 0.00 0.00 95 1004.2
20221208211326 20 99 0.0 2.0 0.00 0.00 0.00 95 1004.1
20221208210828 20 94 0.0 2.0 0.00 0.00 0.00 95 1004.2
20221208210335 20 93 0.0 2.0 0.00 0.00 0.00 95 1004.2
20221208205838 20 91 0.0 2.0 0.00 0.00 0.00 95 1004.2
20221208205403 20 89 0.0 0.0 0.00 0.00 0.00 95 1004.1
20221208204825 20 115 0.0 0.0 0.00 0.00 0.00 95 1004.1
20221208204329 20 115 0.0 0.0 0.00 0.00 0.00 95 1004.1
20221208203853 20 115 0.0 0.0 0.00 0.00 0.00 95 1004.1
20221208203336 20 114 0.0 0.0 0.00 0.00 0.00 95 1004.1
20221208202839 20 114 0.0 0.0 0.00 0.00 0.00 96 1004.1
20221208202342 20 114 0.0 0.0 0.00 0.00 0.00 95 1004.0
20221208201844 20 114 0.0 0.0 0.00 0.00 0.00 96 1004.1
20221208201348 20 115 0.0 0.0 0.00 0.00 0.00 96 1004.1
20221208200830 19 114 0.0 0.0 0.00 0.00 0.00 96 1004.1
20221208200334 19 86 0.0 0.0 0.00 0.00 0.00 96 1004.1
20221208195837 19 86 0.0 0.0 0.00 0.00 0.00 96 1004.0
20221208195339 19 86 0.0 0.0 0.00 0.00 0.00 95 1004.0
20221208194827 18 86 0.0 0.0 0.00 0.00 0.00 95 1003.9
20221208194330 18 86 0.0 0.0 0.00 0.00 0.00 95 1004.0
20221208193854 18 86 0.0 0.0 0.00 0.00 0.00 94 1004.0
20221208193336 18 86 0.0 0.0 0.00 0.00 0.00 95 1003.9
20221208192840 18 86 0.0 0.0 0.00 0.00 0.00 95 1003.8
20221208192344 18 86 0.0 0.0 0.00 0.00 0.00 95 1003.7
20221208191827 18 86 0.0 0.0 0.00 0.00 0.00 95 1003.6
20221208191331 18 84 0.0 0.0 0.00 0.00 0.00 94 1003.7
20221208190854 18 84 0.0 0.0 0.00 0.00 0.00 95 1003.7
20221208190337 19 85 0.0 0.0 0.00 0.00 0.00 95 1003.7
20221208185841 18 85 0.0 0.0 0.00 0.00 0.00 95 1003.7
20221208185342 18 85 0.0 0.0 0.00 0.00 0.00 96 1003.7
20221208184827 18 84 0.0 0.0 0.00 0.00 0.00 96 1003.7
20221208184332 18 87 0.0 0.0 0.00 0.00 0.00 96 1003.8
20221208183836 18 87 0.0 0.0 0.00 0.00 0.00 97 1003.9
20221208183339 17 87 0.0 0.0 0.00 0.00 0.00 96 1003.8
20221208182841 16 86 0.0 0.0 0.00 0.00 0.00 97 1003.8
20221208182405 15 86 0.0 0.0 0.00 0.00 0.00 97 1003.8
20221208181827 15 86 0.0 0.0 0.00 0.00 0.00 96 1003.7
20221208181330 14 86 0.0 0.0 0.00 0.00 0.00 96 1003.7
20221208180833 13 86 0.0 0.0 0.00 0.00 0.00 96 1003.7
20221208180356 13 86 0.0 0.0 0.00 0.00 0.00 95 1003.8
20221208175838 12 86 0.0 0.0 0.00 0.00 0.00 94 1003.8
20221208175340 12 86 0.0 0.0 0.00 0.00 0.00 94 1003.8
20221208174825 12 86 0.0 0.0 0.00 0.00 0.00 93 1003.8
20221208174349 12 86 0.0 0.0 0.00 0.00 0.00 92 1003.8
20221208173832 12 86 0.0 0.0 0.00 0.00 0.00 92 1003.8
20221208173334 12 86 0.0 0.0 0.00 0.00 0.00 93 1003.8
20221208172841 12 86 0.0 0.0 0.00 0.00 0.00 93 1003.8
20221208172344 12 86 0.0 0.0 0.00 0.00 0.00 94 1003.8
20221208171828 12 86 0.0 0.0 0.00 0.00 0.00 94 1003.8
20221208171330 12 86 0.0 0.0 0.00 0.00 0.00 94 1003.8
20221208170833 12 86 0.0 0.0 0.00 0.00 0.00 93 1003.7
20221208170335 11 86 0.0 0.0 0.00 0.00 0.00 93 1003.7
20221208165838 11 86 0.0 0.0 0.00 0.00 0.00 93 1003.6
20221208165341 11 86 0.0 0.0 0.00 0.00 0.00 93 1003.7
20221208164845 11 86 0.0 0.0 0.00 0.00 0.00 93 1003.7
20221208164345 11 86 0.0 0.0 0.00 0.00 0.00 92 1003.7
20221208163905 11 86 0.0 0.0 0.00 0.00 0.00 93 1003.7
20221208163348 11 86 0.0 0.0 0.00 0.00 0.00 93 1003.7
20221208162832 11 86 0.0 0.0 0.00 0.00 0.00 92 1003.7
20221208162332 11 86 0.0 0.0 0.00 0.00 0.00 92 1003.7
20221208161835 11 86 0.0 0.0 0.00 0.00 0.00 92 1003.8
20221208161343 12 86 0.0 0.0 0.00 0.00 0.00 92 1003.7
20221208160848 12 86 0.0 0.0 0.00 0.00 0.00 92 1003.5
20221208160331 12 86 0.0 0.0 0.00 0.00 0.00 92 1003.4
20221208155854 12 86 0.0 0.0 0.00 0.00 0.00 92 1003.5
20221208155357 12 86 0.0 0.0 0.00 0.00 0.00 92 1003.4
20221208154839 12 86 0.0 0.0 0.00 0.00 0.00 92 1003.4
20221208154341 12 86 0.0 0.0 0.00 0.00 0.00 92 1003.4
20221208153844 13 86 0.0 0.0 0.00 0.00 0.00 93 1003.4
20221208153328 13 86 0.0 0.0 0.00 0.00 0.00 93 1003.3
20221208152852 13 86 0.0 0.0 0.00 0.00 0.00 93 1003.4
20221208152354 13 86 0.0 0.0 0.00 0.00 0.00 93 1003.4
20221208151836 13 86 0.0 0.0 0.00 0.00 0.00 93 1003.4
20221208151338 13 86 0.0 0.0 0.00 0.00 0.00 92 1003.4
20221208150840 14 86 0.0 0.0 0.00 0.00 0.00 93 1003.5
20221208150343 14 86 0.0 0.0 0.00 0.00 0.00 94 1003.5
20221208145848 14 86 0.0 0.0 0.00 0.00 0.00 93 1003.5
20221208145331 14 86 0.0 0.0 0.00 0.00 0.00 93 1003.5
20221208144855 14 86 0.0 0.0 0.00 0.00 0.00 94 1003.6
20221208144337 14 86 0.0 0.0 0.00 0.00 0.00 93 1003.6
20221208143902 14 86 0.0 0.0 0.00 0.00 0.00 94 1003.6
20221208143326 14 86 0.0 0.0 0.00 0.00 0.00 94 1003.6
20221208142834 14 86 0.0 0.0 0.00 0.00 0.00 94 1003.6
20221208142339 14 86 0.0 0.0 0.00 0.00 0.00 94 1003.6
20221208141843 13 86 0.0 0.0 0.00 0.00 0.00 93 1003.6
20221208141347 13 86 0.0 0.0 0.00 0.00 0.00 93 1003.7
20221208140831 13 86 0.0 0.0 0.00 0.00 0.00 93 1003.7
20221208140336 13 86 0.0 0.0 0.00 0.00 0.00 93 1003.6
20221208135900 13 86 0.0 0.0 0.00 0.00 0.00 93 1003.6
20221208135344 13 86 0.0 0.0 0.00 0.00 0.00 93 1003.6
20221208134829 13 86 0.0 0.0 0.00 0.00 0.00 92 1003.6
20221208134334 14 86 0.0 0.0 0.00 0.00 0.00 92 1003.6
20221208133839 14 86 0.0 0.0 0.00 0.00 0.00 92 1003.5
20221208133341 14 86 0.0 0.0 0.00 0.00 0.00 93 1003.5
20221208132905 14 86 0.0 0.0 0.00 0.00 0.00 92 1003.5
20221208132328 14 86 0.0 0.0 0.00 0.00 0.00 92 1003.5
20221208131833 14 86 0.0 0.0 0.00 0.00 0.00 93 1003.5
20221208131341 14 86 0.0 0.0 0.00 0.00 0.00 93 1003.5
20221208130844 14 86 0.0 0.0 0.00 0.00 0.00 93 1003.5
20221208130330 14 86 0.0 0.0 0.00 0.00 0.00 93 1003.5
20221208125832 14 86 0.0 0.0 0.00 0.00 0.00 93 1003.5
20221208125357 14 86 0.0 0.0 0.00 0.00 0.00 93 1003.5
20221208124842 14 86 0.0 0.0 0.00 0.00 0.00 92 1003.5
20221208124326 15 86 0.0 0.0 0.00 0.00 0.00 93 1003.4
20221208123830 15 86 0.0 0.0 0.00 0.00 0.00 93 1003.3
20221208123354 15 86 0.0 0.0 0.00 0.00 0.00 93 1003.4
20221208122858 15 86 0.0 0.0 0.00 0.00 0.00 93 1003.4
20221208122400 15 86 0.0 0.0 0.00 0.00 0.00 93 1003.4
20221208121843 15 86 0.0 0.0 0.00 0.00 0.00 93 1003.4
20221208121326 15 86 0.0 0.0 0.00 0.00 0.00 93 1003.4
20221208120832 15 86 0.0 0.0 0.00 0.00 0.00 93 1003.4
20221208120336 15 86 0.0 0.0 0.00 0.00 0.00 94 1003.4
20221208115842 15 86 0.0 0.0 0.00 0.00 0.00 94 1003.4
20221208115329 15 86 0.0 0.0 0.00 0.00 0.00 94 1003.4
20221208114834 15 86 0.0 0.0 0.00 0.00 0.00 94 1003.4
20221208114338 15 86 0.0 0.0 0.00 0.00 0.00 94 1003.4
20221208113844 15 86 0.0 0.0 0.00 0.00 0.00 93 1003.3
20221208113330 15 86 0.0 0.0 0.00 0.00 0.00 93 1003.3
20221208112854 15 86 0.0 0.0 0.00 0.00 0.00 93 1003.3
20221208112337 15 86 0.0 0.0 0.00 0.00 0.00 92 1003.3
20221208111843 15 86 0.0 0.0 0.00 0.00 0.00 93 1003.4
20221208111327 16 76 0.0 0.0 0.00 0.00 0.00 93 1003.4
20221208110830 16 76 0.0 0.0 0.00 0.00 0.00 93 1003.4
20221208110355 16 80 0.0 0.0 0.00 0.00 0.00 93 1003.4
20221208105858 16 80 0.0 0.0 0.00 0.00 0.00 93 1003.4
20221208105341 16 80 0.0 0.0 0.00 0.00 0.00 94 1003.4
20221208104826 16 80 0.0 0.0 0.00 0.00 0.00 95 1003.3
20221208104336 15 80 0.0 2.0 0.00 0.00 0.00 95 1003.3
20221208103858 15 80 0.0 2.0 0.00 0.00 0.00 94 1003.4
20221208103342 14 80 0.0 0.0 0.00 0.00 0.00 93 1003.4
20221208102847 14 80 0.0 0.0 0.00 0.00 0.00 93 1003.5
20221208102331 14 80 0.0 0.0 0.00 0.00 0.00 93 1003.5
20221208101836 14 80 0.0 0.0 0.00 0.00 0.00 93 1003.4
20221208101339 14 80 0.0 0.0 0.00 0.00 0.00 93 1003.5
20221208100844 14 80 0.0 0.0 0.00 0.00 0.00 93 1003.5
20221208100329 14 80 0.0 0.0 0.00 0.00 0.00 93 1003.4
20221208095831 14 80 0.0 0.0 0.00 0.00 0.00 93 1003.4
20221208095335 14 80 0.0 0.0 0.00 0.00 0.00 93 1003.4
20221208094841 14 80 0.0 0.0 0.00 0.00 0.00 94 1003.4
20221208094326 14 80 0.0 0.0 0.00 0.00 0.00 94 1003.5
20221208093852 14 80 0.0 0.0 0.00 0.00 0.00 94 1003.5
20221208093355 14 80 0.0 0.0 0.00 0.00 0.00 94 1003.5
20221208092839 14 80 0.0 0.0 0.00 0.00 0.00 94 1003.6
20221208092402 13 80 0.0 0.0 0.00 0.00 0.00 94 1003.5
20221208091828 13 80 0.0 0.0 0.00 0.00 0.00 94 1003.5
20221208091332 13 80 0.0 0.0 0.00 0.00 0.00 94 1003.4
20221208090835 13 80 0.0 0.0 0.00 0.00 0.00 94 1003.4
20221208090359 12 80 0.0 0.0 0.00 0.00 0.00 94 1003.3
20221208085844 12 80 0.0 0.0 0.00 0.00 0.00 95 1003.4
20221208085329 12 80 0.0 0.0 0.00 0.00 0.00 94 1003.4
20221208084833 12 80 0.0 0.0 0.00 0.00 0.00 94 1003.4
20221208084337 11 80 0.0 0.0 0.00 0.00 0.00 94 1003.3
20221208083902 11 80 0.0 0.0 0.00 0.00 0.00 94 1003.4
20221208083406 11 80 0.0 0.0 0.00 0.00 0.00 94 1003.3
20221208082847 10 80 0.0 0.0 0.00 0.00 0.00 93 1003.3
20221208082329 10 80 0.0 0.0 0.00 0.00 0.00 93 1003.4
20221208081831 10 80 0.0 0.0 0.00 0.00 0.00 93 1003.4
20221208081353 10 80 0.0 0.0 0.00 0.00 0.00 92 1003.3
20221208080833 10 80 0.0 0.0 0.00 0.00 0.00 92 1003.2
20221208080353 10 80 0.0 0.0 0.00 0.00 0.00 92 1003.2
20221208075832 10 80 0.0 0.0 0.00 0.00 0.00 92 1003.2
20221208075332 11 80 0.0 0.0 0.00 0.00 0.00 92 1003.2
20221208074838 11 80 0.0 0.0 0.00 0.00 0.00 93 1003.2
20221208074337 11 80 0.0 0.0 0.00 0.00 0.00 93 1003.1
20221208073838 11 80 0.0 0.0 0.00 0.00 0.00 94 1003.1
20221208073338 11 80 0.0 0.0 0.00 0.00 0.00 95 1003.1
20221208072903 11 80 0.0 0.0 0.00 0.00 0.00 96 1003.0
20221208072347 11 80 0.0 0.0 0.00 0.00 0.00 95 1003.0
20221208071830 10 80 0.0 0.0 0.00 0.00 0.00 94 1003.0
20221208071352 10 80 0.0 0.0 0.00 0.00 0.00 93 1003.0
20221208070832 10 80 0.0 0.0 0.00 0.00 0.00 93 1003.0
20221208070333 10 80 0.0 0.0 0.00 0.00 0.00 93 1002.9
20221208065834 10 80 0.0 0.0 0.00 0.00 0.00 93 1002.9
20221208065333 9 80 0.0 0.0 0.00 0.00 0.00 94 1002.8
20221208064832 9 80 0.0 0.0 0.00 0.00 0.00 94 1002.8
20221208064334 8 80 0.0 0.0 0.00 0.00 0.00 93 1002.8
20221208063855 8 80 0.0 0.0 0.00 0.00 0.00 93 1002.8
20221208063334 8 80 0.0 0.0 0.00 0.00 0.00 92 1002.8
20221208062836 8 80 0.0 0.0 0.00 0.00 0.00 91 1002.8
20221208062337 8 80 0.0 0.0 0.00 0.00 0.00 91 1002.8
20221208061857 8 80 0.0 0.0 0.00 0.00 0.00 91 1002.8
20221208061337 8 80 0.0 0.0 0.00 0.00 0.00 91 1002.7
20221208060842 9 80 0.0 0.0 0.00 0.00 0.00 91 1002.7
20221208060343 9 80 0.0 0.0 0.00 0.00 0.00 91 1002.7
20221208055845 9 80 0.0 0.0 0.00 0.00 0.00 92 1002.7
20221208055346 9 80 0.0 0.0 0.00 0.00 0.00 92 1002.7
20221208054828 9 80 0.0 0.0 0.00 0.00 0.00 92 1002.7
20221208054329 9 80 0.0 0.0 0.00 0.00 0.00 93 1002.6
20221208053850 9 80 0.0 0.0 0.00 0.00 0.00 93 1002.7
20221208053347 9 80 0.0 0.0 0.00 0.00 0.00 92 1002.7
20221208052829 9 80 0.0 0.0 0.00 0.00 0.00 92 1002.7
20221208052330 9 80 0.0 0.0 0.00 0.00 0.00 92 1002.7
20221208051833 9 80 0.0 0.0 0.00 0.00 0.00 93 1002.7
20221208051334 9 80 0.0 0.0 0.00 0.00 0.00 93 1002.8
20221208050838 9 80 0.0 0.0 0.00 0.00 0.00 93 1002.6
20221208050342 8 80 0.0 0.0 0.00 0.00 0.00 92 1002.7
20221208045844 8 80 0.0 0.0 0.00 0.00 0.00 92 1002.7
20221208045405 8 80 0.0 0.0 0.00 0.00 0.00 92 1002.7
20221208044904 9 80 0.0 0.0 0.00 0.00 0.00 92 1002.7
20221208044405 9 80 0.0 0.0 0.00 0.00 0.00 93 1002.8
20221208043845 8 80 0.0 0.0 0.00 0.00 0.00 94 1002.8
20221208043346 8 80 0.0 0.0 0.00 0.00 0.00 93 1002.8
20221208042847 8 80 0.0 0.0 0.00 0.00 0.00 92 1002.8
20221208042346 8 80 0.0 0.0 0.00 0.00 0.00 92 1002.8
20221208041907 8 80 0.0 0.0 0.00 0.00 0.00 92 1002.9
20221208041345 7 80 0.0 0.0 0.00 0.00 0.00 92 1003.0
20221208040846 7 80 0.0 0.0 0.00 0.00 0.00 92 1002.9
20221208040328 7 80 0.0 0.0 0.00 0.00 0.00 92 1003.0
20221208035848 7 80 0.0 0.0 0.00 0.00 0.00 92 1003.0
20221208035347 7 80 0.0 0.0 0.00 0.00 0.00 92 1003.0
20221208034844 7 80 0.0 0.0 0.00 0.00 0.00 92 1003.1
20221208034346 7 80 0.0 0.0 0.00 0.00 0.00 92 1003.1
20221208033846 7 80 0.0 0.0 0.00 0.00 0.00 92 1003.2
20221208033347 7 80 0.0 0.0 0.00 0.00 0.00 92 1003.2
20221208032832 7 80 0.0 0.0 0.00 0.00 0.00 92 1003.3
20221208032333 7 80 0.0 0.0 0.00 0.00 0.00 92 1003.3
20221208031833 7 80 0.0 0.0 0.00 0.00 0.00 92 1003.3
20221208031335 7 80 0.0 0.0 0.00 0.00 0.00 91 1003.4
20221208030836 7 80 0.0 0.0 0.00 0.00 0.00 92 1003.4
20221208030337 7 80 0.0 0.0 0.00 0.00 0.00 92 1003.3
20221208025839 7 80 0.0 0.0 0.00 0.00 0.00 92 1003.4
20221208025342 7 80 0.0 0.0 0.00 0.00 0.00 94 1003.4
20221208024842 7 80 0.0 0.0 0.00 0.00 0.00 93 1003.4
20221208024404 7 80 0.0 0.0 0.00 0.00 0.00 92 1003.4
20221208023843 7 80 0.0 0.0 0.00 0.00 0.00 91 1003.4
20221208023345 7 80 0.0 0.0 0.00 0.00 0.00 91 1003.3
20221208022846 7 80 0.0 0.0 0.00 0.00 0.00 92 1003.4
20221208022332 7 80 0.0 0.0 0.00 0.00 0.00 92 1003.3
20221208021835 7 80 0.0 0.0 0.00 0.00 0.00 91 1003.3
20221208021337 7 80 0.0 0.0 0.00 0.00 0.00 92 1003.3
20221208020839 7 80 0.0 0.0 0.00 0.00 0.00 91 1003.3
20221208020340 7 80 0.0 0.0 0.00 0.00 0.00 91 1003.3
20221208015839 7 80 0.0 0.0 0.00 0.00 0.00 91 1003.3
20221208015339 7 80 0.0 0.0 0.00 0.00 0.00 91 1003.3
20221208014841 7 80 0.0 0.0 0.00 0.00 0.00 91 1003.2
20221208014401 7 80 0.0 0.0 0.00 0.00 0.00 91 1003.2
20221208013901 7 80 0.0 0.0 0.00 0.00 0.00 91 1003.3
20221208013342 7 80 0.0 0.0 0.00 0.00 0.00 91 1003.3
20221208012902 7 80 0.0 0.0 0.00 0.00 0.00 91 1003.2
20221208012342 8 80 0.0 0.0 0.00 0.00 0.00 91 1003.3
20221208011844 8 80 0.0 0.0 0.00 0.00 0.00 92 1003.4
20221208011345 8 80 0.0 0.0 0.00 0.00 0.00 92 1003.5
20221208010845 8 80 0.0 0.0 0.00 0.00 0.00 92 1003.5
20221208010346 8 80 0.0 0.0 0.00 0.00 0.00 92 1003.5
20221208005831 8 80 0.0 0.0 0.00 0.00 0.00 92 1003.5
20221208005354 8 80 0.0 0.0 0.00 0.00 0.00 92 1003.5
20221208004834 8 80 0.0 0.0 0.00 0.00 0.00 92 1003.5
20221208004335 8 80 0.0 0.0 0.00 0.00 0.00 92 1003.6
20221208003835 8 80 0.0 0.0 0.00 0.00 0.00 91 1003.7
20221208003336 8 80 0.0 0.0 0.00 0.00 0.00 92 1003.7
20221208002837 8 80 0.0 0.0 0.00 0.00 0.00 93 1003.6
20221208002340 8 80 0.0 0.0 0.00 0.00 0.00 92 1003.5
20221208001840 8 80 0.0 0.0 0.00 0.00 0.00 92 1003.6
20221208001343 8 80 0.0 0.0 0.00 0.00 0.00 92 1003.6
20221208000844 8 80 0.0 0.0 0.00 0.00 0.00 92 1003.6
20221208000406 7 80 0.0 0.0 0.00 0.00 0.00 92 1003.7
20221207235845 7 80 0.0 0.0 0.00 0.00 0.00 91 1003.7
20221207235347 8 80 0.0 0.0 0.00 0.00 0.00 91 1003.7
20221207234828 8 80 0.0 0.0 0.00 0.00 0.00 91 1003.7